Time,TemperatureF,DewpointF,PressureIn,WindDirection,WindDirectionDegrees,WindSpeedMPH,WindSpeedGustMPH,Humidity,HourlyPrecipIn,Conditions,Clouds,dailyrainin,SoftwareType,DateUTC
2017-05-23 00:12:00,71.1,70.0,29.80,SE,138,2.0,5.0,96,0.02,,,0.00,weatherlink.com 1.10,2017-05-23 05:12:00,
2017-05-23 00:27:00,71.1,70.0,29.80,North,360,0.0,9.0,96,0.09,,,0.09,weatherlink.com 1.10,2017-05-23 05:27:00,
2017-05-23 00:42:00,71.0,70.0,29.80,SSW,206,2.0,8.0,96,0.20,,,0.20,weatherlink.com 1.10,2017-05-23 05:42:00,
2017-05-23 00:57:00,71.0,70.0,29.80,South,181,0.0,3.0,96,0.21,,,0.21,weatherlink.com 1.10,2017-05-23 05:57:00,
2017-05-23 01:12:00,70.9,70.0,29.79,WNW,293,0.0,1.0,96,0.21,,,0.21,weatherlink.com 1.10,2017-05-23 06:12:00,
2017-05-23 01:27:00,71.0,70.0,29.78,WNW,293,0.0,2.0,96,0.10,,,0.21,weatherlink.com 1.10,2017-05-23 06:27:00,
2017-05-23 01:42:00,71.0,70.0,29.78,South,174,0.0,2.0,96,0.00,,,0.21,weatherlink.com 1.10,2017-05-23 06:42:00,
2017-05-23 01:57:00,71.3,70.0,29.77,WSW,250,1.0,3.0,96,0.00,,,0.21,weatherlink.com 1.10,2017-05-23 06:57:00,
2017-05-23 02:12:00,71.3,70.0,29.77,WSW,250,0.0,2.0,96,0.04,,,0.25,weatherlink.com 1.10,2017-05-23 07:12:00,
2017-05-23 02:27:00,71.5,71.0,29.75,South,187,0.0,5.0,97,0.09,,,0.30,weatherlink.com 1.10,2017-05-23 07:27:00,
2017-05-23 02:42:00,71.7,71.0,29.75,South,190,0.0,5.0,97,0.10,,,0.31,weatherlink.com 1.10,2017-05-23 07:42:00,
2017-05-23 02:57:00,71.9,71.0,29.74,West,280,0.0,3.0,97,0.11,,,0.32,weatherlink.com 1.10,2017-05-23 07:57:00,
2017-05-23 03:12:00,72.0,71.0,29.74,South,189,1.0,6.0,97,0.07,,,0.33,weatherlink.com 1.10,2017-05-23 08:12:00,
2017-05-23 03:27:00,72.2,71.0,29.73,SE,143,2.0,7.0,97,0.03,,,0.33,weatherlink.com 1.10,2017-05-23 08:27:00,
2017-05-23 03:42:00,72.3,71.0,29.73,West,263,0.0,8.0,97,0.02,,,0.33,weatherlink.com 1.10,2017-05-23 08:42:00,
2017-05-23 03:57:00,72.5,72.0,29.73,SSW,203,0.0,3.0,97,0.00,,,0.33,weatherlink.com 1.10,2017-05-23 08:57:00,
2017-05-23 04:12:00,72.6,72.0,29.73,SSW,209,0.0,4.0,97,0.00,,,0.33,weatherlink.com 1.10,2017-05-23 09:12:00,
2017-05-23 04:27:00,72.8,72.0,29.74,WSW,244,6.0,9.0,97,0.00,,,0.33,weatherlink.com 1.10,2017-05-23 09:27:00,
2017-05-23 04:42:00,72.8,72.0,29.74,West,275,0.0,7.0,97,0.00,,,0.33,weatherlink.com 1.10,2017-05-23 09:42:00,
2017-05-23 04:57:00,73.0,72.0,29.74,West,278,1.0,6.0,97,0.00,,,0.33,weatherlink.com 1.10,2017-05-23 09:57:00,
2017-05-23 05:12:00,72.8,72.0,29.74,WNW,282,7.0,7.0,97,0.00,,,0.33,weatherlink.com 1.10,2017-05-23 10:12:00,
2017-05-23 05:27:00,72.5,72.0,29.74,West,273,1.0,6.0,97,0.00,,,0.33,weatherlink.com 1.10,2017-05-23 10:27:00,
2017-05-23 05:42:00,72.1,71.0,29.74,SSW,203,2.0,9.0,96,0.00,,,0.33,weatherlink.com 1.10,2017-05-23 10:42:00,
2017-05-23 05:57:00,71.9,71.0,29.75,WNW,299,5.0,8.0,96,0.00,,,0.33,weatherlink.com 1.10,2017-05-23 10:57:00,
2017-05-23 06:12:00,71.8,71.0,29.75,WSW,246,0.0,4.0,96,0.00,,,0.33,weatherlink.com 1.10,2017-05-23 11:12:00,
2017-05-23 06:27:00,71.7,71.0,29.74,WSW,251,0.0,6.0,96,0.00,,,0.33,weatherlink.com 1.10,2017-05-23 11:27:00,
2017-05-23 06:42:00,71.7,71.0,29.74,WNW,291,0.0,8.0,96,0.00,,,0.33,weatherlink.com 1.10,2017-05-23 11:42:00,
2017-05-23 06:57:00,71.8,71.0,29.75,NW,305,0.0,6.0,96,0.00,,,0.33,weatherlink.com 1.10,2017-05-23 11:57:00,
2017-05-23 07:12:00,71.9,71.0,29.75,WNW,300,1.0,7.0,96,0.00,,,0.33,weatherlink.com 1.10,2017-05-23 12:12:00,
2017-05-23 07:27:00,72.0,71.0,29.75,WNW,297,4.0,7.0,96,0.00,,,0.33,weatherlink.com 1.10,2017-05-23 12:27:00,
2017-05-23 07:42:00,72.1,71.0,29.74,WNW,292,3.0,11.0,95,0.00,,,0.33,weatherlink.com 1.10,2017-05-23 12:42:00,
2017-05-23 07:57:00,72.6,71.0,29.74,WNW,303,3.0,9.0,95,0.00,,,0.33,weatherlink.com 1.10,2017-05-23 12:57:00,
2017-05-23 08:12:00,73.4,72.0,29.74,WNW,283,1.0,7.0,94,0.00,,,0.33,weatherlink.com 1.10,2017-05-23 13:12:00,
2017-05-23 08:27:00,73.9,72.0,29.75,West,259,0.0,7.0,92,0.00,,,0.33,weatherlink.com 1.10,2017-05-23 13:27:00,
2017-05-23 08:42:00,73.6,71.0,29.76,WSW,253,1.0,7.0,92,0.00,,,0.33,weatherlink.com 1.10,2017-05-23 13:42:00,
2017-05-23 08:57:00,73.3,71.0,29.76,West,280,4.0,7.0,91,0.00,,,0.33,weatherlink.com 1.10,2017-05-23 13:57:00,
2017-05-23 09:12:00,73.1,70.0,29.76,WNW,285,0.0,7.0,91,0.00,,,0.33,weatherlink.com 1.10,2017-05-23 14:12:00,
2017-05-23 09:28:00,73.1,71.0,29.76,NW,307,6.0,6.0,92,0.00,,,0.33,weatherlink.com 1.10,2017-05-23 14:28:00,
2017-05-23 09:42:00,72.8,70.0,29.77,West,273,0.0,7.0,92,0.00,,,0.33,weatherlink.com 1.10,2017-05-23 14:42:00,
2017-05-23 09:57:00,73.5,71.0,29.77,NW,312,3.0,9.0,91,0.00,,,0.33,weatherlink.com 1.10,2017-05-23 14:57:00,
2017-05-23 10:12:00,74.5,71.0,29.76,WNW,296,3.0,5.0,89,0.00,,,0.33,weatherlink.com 1.10,2017-05-23 15:12:00,
2017-05-23 10:27:00,74.7,71.0,29.76,NW,323,1.0,8.0,87,0.00,,,0.33,weatherlink.com 1.10,2017-05-23 15:27:00,
2017-05-23 10:42:00,75.1,71.0,29.75,NNW,347,2.0,8.0,86,0.00,,,0.33,weatherlink.com 1.10,2017-05-23 15:42:00,
2017-05-23 10:57:00,74.7,70.0,29.77,North,5,5.0,11.0,86,0.00,,,0.33,weatherlink.com 1.10,2017-05-23 15:57:00,
2017-05-23 11:12:00,74.7,70.0,29.77,NW,314,0.0,7.0,86,0.00,,,0.33,weatherlink.com 1.10,2017-05-23 16:12:00,
2017-05-23 11:27:00,74.8,70.0,29.78,NW,311,2.0,11.0,84,0.00,,,0.33,weatherlink.com 1.10,2017-05-23 16:27:00,
2017-05-23 11:42:00,74.4,70.0,29.78,WNW,294,3.0,8.0,86,0.00,,,0.33,weatherlink.com 1.10,2017-05-23 16:42:00,
2017-05-23 11:57:00,74.7,70.0,29.78,NW,317,1.0,5.0,84,0.00,,,0.33,weatherlink.com 1.10,2017-05-23 16:57:00,
2017-05-23 12:12:00,75.3,70.0,29.78,NNW,346,2.0,5.0,82,0.00,,,0.33,weatherlink.com 1.10,2017-05-23 17:12:00,
2017-05-23 12:28:00,76.1,70.0,29.78,WSW,244,1.0,5.0,81,0.00,,,0.33,weatherlink.com 1.10,2017-05-23 17:28:00,
2017-05-23 12:43:00,76.4,70.0,29.78,WNW,297,0.0,4.0,81,0.00,,,0.33,weatherlink.com 1.10,2017-05-23 17:43:00,
2017-05-23 12:57:00,76.6,70.0,29.79,West,275,0.0,2.0,81,0.00,,,0.33,weatherlink.com 1.10,2017-05-23 17:57:00,
2017-05-23 13:13:00,77.7,71.0,29.78,West,277,0.0,4.0,79,0.00,,,0.33,weatherlink.com 1.10,2017-05-23 18:13:00,
2017-05-23 13:28:00,79.0,71.0,29.78,West,261,5.0,7.0,76,0.00,,,0.33,weatherlink.com 1.10,2017-05-23 18:28:00,
2017-05-23 13:43:00,79.4,71.0,29.77,NW,317,3.0,7.0,76,0.00,,,0.33,weatherlink.com 1.10,2017-05-23 18:43:00,
2017-05-23 13:58:00,79.9,71.0,29.76,West,262,5.0,8.0,74,0.00,,,0.33,weatherlink.com 1.10,2017-05-23 18:58:00,
2017-05-23 14:13:00,79.2,71.0,29.76,North,5,8.0,8.0,77,0.00,,,0.33,weatherlink.com 1.10,2017-05-23 19:13:00,
2017-05-23 14:28:00,79.3,70.0,29.75,NW,310,1.0,7.0,74,0.00,,,0.33,weatherlink.com 1.10,2017-05-23 19:28:00,
2017-05-23 14:43:00,79.6,70.0,29.74,NW,319,2.0,8.0,73,0.00,,,0.33,weatherlink.com 1.10,2017-05-23 19:43:00,
2017-05-23 14:58:00,81.0,70.0,29.73,West,271,2.0,7.0,70,0.00,,,0.33,weatherlink.com 1.10,2017-05-23 19:58:00,
2017-05-23 15:13:00,81.2,71.0,29.73,WNW,286,4.0,10.0,70,0.00,,,0.33,weatherlink.com 1.10,2017-05-23 20:13:00,
2017-05-23 15:28:00,80.8,70.0,29.72,WNW,288,4.0,9.0,69,0.00,,,0.33,weatherlink.com 1.10,2017-05-23 20:28:00,
2017-05-23 15:43:00,81.2,72.0,29.72,WSW,247,2.0,8.0,74,0.00,,,0.33,weatherlink.com 1.10,2017-05-23 20:43:00,
2017-05-23 15:58:00,81.3,72.0,29.72,WSW,252,0.0,8.0,73,0.00,,,0.33,weatherlink.com 1.10,2017-05-23 20:58:00,
2017-05-23 16:13:00,79.4,71.0,29.72,West,271,3.0,11.0,76,0.00,,,0.33,weatherlink.com 1.10,2017-05-23 21:13:00,
2017-05-23 16:28:00,80.0,71.0,29.71,WNW,284,2.0,6.0,74,0.00,,,0.33,weatherlink.com 1.10,2017-05-23 21:28:00,
2017-05-23 16:43:00,81.7,71.0,29.70,NNE,23,2.0,7.0,71,0.00,,,0.33,weatherlink.com 1.10,2017-05-23 21:43:00,
2017-05-23 16:58:00,80.2,70.0,29.70,NW,304,2.0,10.0,72,0.00,,,0.33,weatherlink.com 1.10,2017-05-23 21:58:00,
2017-05-23 17:13:00,80.7,71.0,29.70,WNW,303,6.0,8.0,71,0.00,,,0.33,weatherlink.com 1.10,2017-05-23 22:13:00,
2017-05-23 17:28:00,81.1,71.0,29.70,NW,321,4.0,6.0,71,0.00,,,0.33,weatherlink.com 1.10,2017-05-23 22:28:00,
2017-05-23 17:43:00,81.5,69.0,29.70,NW,313,3.0,8.0,66,0.00,,,0.33,weatherlink.com 1.10,2017-05-23 22:43:00,
2017-05-23 17:58:00,81.5,70.0,29.70,NW,307,1.0,7.0,67,0.00,,,0.33,weatherlink.com 1.10,2017-05-23 22:58:00,